BAW4GS EGLL-LEBL

Flight info

Callsign BAW4GS
Flight time N/A
Altitude 35000
Route MODMI1J MODMI M185 MID L151 SITET UN859 SOPIL DCT BALAN DCT EVPOK DCT NARAK DCT GAI DCT LOMRA DCT ROCAN DCT PUMAL PUMAL1Z
Aircraft A321/M-SDE3FGHIRWY/LB1

Departure

Time 2026-05-05 12:32
Airport London Heathrow Airport (EGLL)

Arrival

Time N/A
Airport Josep Tarradellas Barcelona-El Prat Airport (LEBL)
Time Latitude Longitude Altitude Speed Heading
2026-05-05 11:53 51.47407 -0.48891 87 ft 0 kts 179°
2026-05-05 12:18 51.47419 -0.48891 88 ft 4 kts 179°
2026-05-05 12:18 51.47447 -0.48892 86 ft 4 kts 179°
2026-05-05 12:18 51.47469 -0.48892 86 ft 4 kts 168°
2026-05-05 12:19 51.47492 -0.48909 88 ft 4 kts 130°
2026-05-05 12:19 51.47501 -0.48930 89 ft 0 kts 114°
2026-05-05 12:23 51.47495 -0.48907 89 ft 7 kts 111°
2026-05-05 12:24 51.47487 -0.48784 87 ft 15 kts 92°
2026-05-05 12:24 51.47488 -0.48574 87 ft 20 kts 89°
2026-05-05 12:24 51.47434 -0.48475 86 ft 14 kts 176°
2026-05-05 12:24 51.47301 -0.48473 86 ft 25 kts 179°
2026-05-05 12:25 51.47118 -0.48472 87 ft 26 kts 180°
2026-05-05 12:25 51.46951 -0.48470 87 ft 23 kts 181°
2026-05-05 12:25 51.46825 -0.48468 86 ft 8 kts 180°
2026-05-05 12:25 51.46819 -0.48468 86 ft 1 kts 180°
2026-05-05 12:26 51.46781 -0.48469 86 ft 10 kts 180°
2026-05-05 12:26 51.46683 -0.48468 86 ft 18 kts 179°
2026-05-05 12:26 51.46592 -0.48466 86 ft 7 kts 180°
2026-05-05 12:26 51.46589 -0.48467 86 ft 0 kts 180°
2026-05-05 12:29 51.46585 -0.48467 86 ft 2 kts 182°
2026-05-05 12:29 51.46517 -0.48466 86 ft 16 kts 177°
2026-05-05 12:30 51.46478 -0.48344 87 ft 0 kts 89°
2026-05-05 12:31 51.46478 -0.48340 87 ft 2 kts 89°
2026-05-05 12:31 51.46479 -0.48239 89 ft 19 kts 89°
2026-05-05 12:31 51.46483 -0.47701 88 ft 84 kts 89°
2026-05-05 12:31 51.46487 -0.46402 93 ft 147 kts 91°
2026-05-05 12:32 51.46492 -0.44561 394 ft 174 kts 86°
2026-05-05 12:32 51.46513 -0.42584 1110 ft 180 kts 87°
2026-05-05 12:32 51.46121 -0.40576 1371 ft 206 kts 120°
2026-05-05 12:32 51.45251 -0.38632 1601 ft 224 kts 127°
2026-05-05 12:33 51.43858 -0.37229 1738 ft 254 kts 159°
2026-05-05 12:33 51.42144 -0.36306 2258 ft 265 kts 160°
2026-05-05 12:33 51.40290 -0.35799 2965 ft 272 kts 183°
2026-05-05 12:33 51.38489 -0.36594 3695 ft 275 kts 206°
2026-05-05 12:34 51.36739 -0.37810 4454 ft 275 kts 192°
2026-05-05 12:34 51.34843 -0.37965 5186 ft 274 kts 174°
2026-05-05 12:34 51.32936 -0.37643 5970 ft 275 kts 172°
2026-05-05 12:34 51.31040 -0.37249 6693 ft 276 kts 171°
2026-05-05 12:35 51.29130 -0.36828 7368 ft 278 kts 171°
2026-05-05 12:35 51.27196 -0.36412 8024 ft 282 kts 171°
2026-05-05 12:35 51.25243 -0.35979 8689 ft 285 kts 171°
2026-05-05 12:35 51.23304 -0.35484 9345 ft 288 kts 169°
2026-05-05 12:36 51.21324 -0.34879 9975 ft 292 kts 167°
2026-05-05 12:36 51.19257 -0.34204 10237 ft 310 kts 167°
2026-05-05 12:36 51.17093 -0.33479 10362 ft 330 kts 167°
2026-05-05 12:36 51.14775 -0.32705 10603 ft 345 kts 167°
2026-05-05 12:37 51.12401 -0.31925 11080 ft 350 kts 167°
2026-05-05 12:37 51.10004 -0.31154 11667 ft 353 kts 168°
2026-05-05 12:37 51.07578 -0.30380 12218 ft 357 kts 168°
2026-05-05 12:37 51.05247 -0.29639 12743 ft 360 kts 167°
2026-05-05 12:38 51.02842 -0.28887 13288 ft 363 kts 167°
2026-05-05 12:38 51.00348 -0.28100 13841 ft 367 kts 167°
2026-05-05 12:38 50.97830 -0.27299 14336 ft 371 kts 167°
2026-05-05 12:38 50.95295 -0.26496 14871 ft 372 kts 168°
2026-05-05 12:39 50.92750 -0.25689 15385 ft 375 kts 167°
2026-05-05 12:39 50.90189 -0.24876 15917 ft 376 kts 168°
2026-05-05 12:39 50.87620 -0.24062 16444 ft 378 kts 168°
2026-05-05 12:39 50.85026 -0.23248 16959 ft 380 kts 167°
2026-05-05 12:40 50.82457 -0.22441 17462 ft 383 kts 168°
2026-05-05 12:40 50.79840 -0.21616 17960 ft 385 kts 167°
2026-05-05 12:40 50.77207 -0.20784 18421 ft 387 kts 168°
2026-05-05 12:40 50.74560 -0.19949 18837 ft 389 kts 168°
2026-05-05 12:41 50.71894 -0.19113 19260 ft 391 kts 168°
2026-05-05 12:41 50.69217 -0.18277 19668 ft 393 kts 168°
2026-05-05 12:41 50.66525 -0.17440 20079 ft 396 kts 168°
2026-05-05 12:41 50.63818 -0.16597 20499 ft 398 kts 168°
2026-05-05 12:42 50.61095 -0.15753 20876 ft 401 kts 168°
2026-05-05 12:42 50.58349 -0.14900 21255 ft 403 kts 168°
2026-05-05 12:42 50.55591 -0.14041 21639 ft 405 kts 168°
2026-05-05 12:42 50.52815 -0.13176 22020 ft 408 kts 168°
2026-05-05 12:43 50.50032 -0.12310 22409 ft 410 kts 169°
2026-05-05 12:43 50.47224 -0.11439 22794 ft 412 kts 169°
2026-05-05 12:43 50.44399 -0.10567 23162 ft 415 kts 169°
2026-05-05 12:43 50.41566 -0.09690 23531 ft 417 kts 168°
2026-05-05 12:44 50.38711 -0.08806 23861 ft 418 kts 168°
2026-05-05 12:44 50.35848 -0.07923 24231 ft 419 kts 168°
2026-05-05 12:44 50.32991 -0.07038 24604 ft 419 kts 168°
2026-05-05 12:44 50.30129 -0.06154 24950 ft 420 kts 168°
2026-05-05 12:45 50.27253 -0.05274 25320 ft 420 kts 168°
2026-05-05 12:45 50.24388 -0.04400 25719 ft 420 kts 168°
2026-05-05 12:45 50.21522 -0.03520 26091 ft 420 kts 168°
2026-05-05 12:45 50.18657 -0.02640 26450 ft 420 kts 168°
2026-05-05 12:46 50.15822 -0.01770 26763 ft 422 kts 168°
2026-05-05 12:46 50.12935 -0.00892 27088 ft 423 kts 168°
2026-05-05 12:46 50.10979 -0.00297 27292 ft 424 kts 168°
2026-05-05 12:46 50.07148 0.00973 27691 ft 426 kts 166°